Time,TemperatureF,DewpointF,PressureIn,WindDirection,WindDirectionDegrees,WindSpeedMPH,WindSpeedGustMPH,Humidity,HourlyPrecipIn,Conditions,Clouds,dailyrainin,SoftwareType,DateUTC
2013-05-07 07:07:00,58.8,52.0,30.13,NE,49,4.0,5.0,78,0.00,,---,0.00,VWS V14.01,2013-05-07 12:07:00,
2013-05-07 07:08:00,54.2,49.8,30.08,North,8,1.0,5.0,85,0.00,,---,0.00,VWS V14.01,2013-05-07 12:08:00,
2013-05-07 07:13:00,54.7,50.0,30.08,NNW,337,1.0,5.0,84,0.00,,---,0.00,VWS V14.01,2013-05-07 12:13:00,
2013-05-07 07:18:00,55.0,49.9,30.08,NW,324,2.0,5.0,83,0.00,,---,0.00,VWS V14.01,2013-05-07 12:18:00,
2013-05-07 07:24:00,55.1,50.0,30.08,NNW,336,1.0,5.0,83,0.00,,---,0.00,VWS V14.01,2013-05-07 12:24:00,
2013-05-07 07:29:00,55.4,50.0,30.08,NNW,342,0.0,5.0,82,0.00,,---,0.00,VWS V14.01,2013-05-07 12:29:00,
2013-05-07 07:30:00,55.4,50.0,30.08,NNW,342,0.0,5.0,82,0.00,,---,0.00,VWS V14.01,2013-05-07 12:30:00,
2013-05-07 07:34:00,55.5,50.1,30.08,North,354,1.0,3.0,82,0.00,,---,0.00,VWS V14.01,2013-05-07 12:34:00,
2013-05-07 07:39:00,55.9,50.5,30.09,NNW,340,0.0,3.0,82,0.00,,---,0.00,VWS V14.01,2013-05-07 12:39:00,
2013-05-07 07:44:00,56.4,50.7,30.09,NW,324,0.0,3.0,81,0.00,,---,0.00,VWS V14.01,2013-05-07 12:44:00,
2013-05-07 07:49:00,56.7,50.9,30.09,WNW,286,0.0,3.0,81,0.00,,---,0.00,VWS V14.01,2013-05-07 12:49:00,
2013-05-07 07:54:00,57.0,50.9,30.09,WNW,286,1.0,3.0,80,0.00,,---,0.00,VWS V14.01,2013-05-07 12:54:00,
2013-05-07 07:59:00,57.5,51.0,30.09,WNW,287,0.0,0.0,79,0.00,,---,0.00,VWS V14.01,2013-05-07 12:59:00,
2013-05-07 08:00:00,57.4,51.0,30.09,WNW,287,0.0,3.0,79,0.00,,---,0.00,VWS V14.01,2013-05-07 13:00:00,
2013-05-07 08:04:00,58.2,51.4,30.09,WNW,286,0.0,0.0,78,0.00,,---,0.00,VWS V14.01,2013-05-07 13:04:00,
2013-05-07 08:09:00,58.8,51.6,30.09,NW,308,0.0,2.0,77,0.00,,---,0.00,VWS V14.01,2013-05-07 13:09:00,
2013-05-07 08:14:00,59.5,51.9,30.09,WNW,300,1.0,2.0,76,0.00,,---,0.00,VWS V14.01,2013-05-07 13:14:00,
2013-05-07 08:20:00,60.4,51.7,30.09,WNW,300,0.0,2.0,73,0.00,,---,0.00,VWS V14.01,2013-05-07 13:20:00,
2013-05-07 08:25:00,61.1,52.4,30.09,WNW,300,0.0,2.0,73,0.00,,---,0.00,VWS V14.01,2013-05-07 13:25:00,
2013-05-07 08:30:00,62.4,53.3,30.09,NNE,22,0.0,1.0,72,0.00,,---,0.00,VWS V14.01,2013-05-07 13:30:00,
2013-05-07 08:35:00,62.5,52.6,30.09,ENE,75,2.0,3.0,70,0.00,,---,0.00,VWS V14.01,2013-05-07 13:35:00,
2013-05-07 08:40:00,62.3,52.8,30.09,NNW,345,2.0,3.0,71,0.00,,---,0.00,VWS V14.01,2013-05-07 13:40:00,
2013-05-07 08:45:00,62.8,53.7,30.09,ENE,60,0.0,3.0,72,0.00,,---,0.00,VWS V14.01,2013-05-07 13:45:00,
2013-05-07 08:50:00,63.7,53.3,30.09,NE,46,3.0,4.0,69,0.00,,---,0.00,VWS V14.01,2013-05-07 13:50:00,
2013-05-07 08:55:00,64.2,53.4,30.09,NNE,12,2.0,4.0,68,0.00,,---,0.00,VWS V14.01,2013-05-07 13:55:00,
2013-05-07 09:00:00,64.5,53.7,30.09,NW,307,0.0,1.0,68,0.00,,---,0.00,VWS V14.01,2013-05-07 14:00:00,
2013-05-07 09:05:00,65.2,54.0,30.09,ENE,76,0.0,2.0,67,0.00,,---,0.00,VWS V14.01,2013-05-07 14:05:00,
2013-05-07 09:11:00,65.9,53.8,30.09,ESE,113,2.0,3.0,65,0.00,,---,0.00,VWS V14.01,2013-05-07 14:11:00,
2013-05-07 09:16:00,66.6,54.5,30.09,ENE,65,1.0,3.0,65,0.00,,---,0.00,VWS V14.01,2013-05-07 14:16:00,
2013-05-07 09:21:00,67.0,53.6,30.09,ENE,58,3.0,3.0,62,0.00,,---,0.00,VWS V14.01,2013-05-07 14:21:00,
2013-05-07 09:26:00,66.8,53.4,30.09,ESE,113,0.0,4.0,62,0.00,,---,0.00,VWS V14.01,2013-05-07 14:26:00,
2013-05-07 09:30:00,67.1,52.8,30.09,East,98,2.0,4.0,60,0.00,,---,0.00,VWS V14.01,2013-05-07 14:30:00,
2013-05-07 09:31:00,67.1,53.2,30.09,East,81,2.0,3.0,61,0.00,,---,0.00,VWS V14.01,2013-05-07 14:31:00,
2013-05-07 09:36:00,67.4,53.0,30.09,ENE,62,1.0,4.0,60,0.00,,---,0.00,VWS V14.01,2013-05-07 14:36:00,
2013-05-07 09:41:00,68.1,53.2,30.09,NW,308,0.0,4.0,59,0.00,,---,0.00,VWS V14.01,2013-05-07 14:41:00,
2013-05-07 09:46:00,68.4,53.5,30.08,SE,132,2.0,4.0,59,0.00,,---,0.00,VWS V14.01,2013-05-07 14:46:00,
2013-05-07 09:51:00,68.1,53.7,30.09,NE,56,1.0,4.0,60,0.00,,---,0.00,VWS V14.01,2013-05-07 14:51:00,
2013-05-07 09:56:00,69.0,54.1,30.08,NW,309,0.0,4.0,59,0.00,,---,0.00,VWS V14.01,2013-05-07 14:56:00,
2013-05-07 10:00:00,69.3,53.4,30.08,SE,125,2.0,5.0,57,0.00,,---,0.00,VWS V14.01,2013-05-07 15:00:00,
2013-05-07 10:02:00,69.3,54.4,30.08,East,100,0.0,3.0,59,0.00,,---,0.00,VWS V14.01,2013-05-07 15:02:00,
2013-05-07 10:07:00,70.0,54.1,30.08,North,5,0.0,4.0,57,0.00,,---,0.00,VWS V14.01,2013-05-07 15:07:00,
2013-05-07 10:12:00,70.7,53.3,30.08,East,84,0.0,4.0,54,0.00,,---,0.00,VWS V14.01,2013-05-07 15:12:00,
2013-05-07 10:17:00,70.7,51.7,30.08,ESE,112,4.0,5.0,51,0.00,,---,0.00,VWS V14.01,2013-05-07 15:17:00,
2013-05-07 10:22:00,70.2,52.3,30.08,ENE,64,2.0,6.0,53,0.00,,---,0.00,VWS V14.01,2013-05-07 15:22:00,
2013-05-07 10:27:00,70.1,52.7,30.08,ESE,106,3.0,6.0,54,0.00,,---,0.00,VWS V14.01,2013-05-07 15:27:00,
2013-05-07 10:30:00,70.0,52.1,30.08,ESE,114,2.0,6.0,53,0.00,,---,0.00,VWS V14.01,2013-05-07 15:30:00,
2013-05-07 10:32:00,70.1,51.7,30.08,ESE,104,3.0,5.0,52,0.00,,---,0.00,VWS V14.01,2013-05-07 15:32:00,
2013-05-07 10:37:00,70.2,51.2,30.08,NE,46,2.0,7.0,51,0.00,,---,0.00,VWS V14.01,2013-05-07 15:37:00,
2013-05-07 10:42:00,70.9,50.2,30.08,East,84,2.0,7.0,48,0.00,,---,0.00,VWS V14.01,2013-05-07 15:42:00,
2013-05-07 10:47:00,71.3,51.7,30.08,NE,39,4.0,7.0,50,0.00,,---,0.00,VWS V14.01,2013-05-07 15:47:00,
2013-05-07 10:53:00,71.7,51.5,30.08,ENE,76,3.0,7.0,49,0.00,,---,0.00,VWS V14.01,2013-05-07 15:53:00,
2013-05-07 10:58:00,71.6,50.3,30.08,ESE,107,4.0,7.0,47,0.00,,---,0.00,VWS V14.01,2013-05-07 15:58:00,
2013-05-07 11:00:00,71.5,50.8,30.08,ENE,71,0.0,7.0,48,0.00,,---,0.00,VWS V14.01,2013-05-07 16:00:00,
2013-05-07 11:03:00,71.8,51.1,30.08,NE,40,2.0,3.0,48,0.00,,---,0.00,VWS V14.01,2013-05-07 16:03:00,
2013-05-07 11:08:00,72.2,53.1,30.08,East,88,2.0,5.0,51,0.00,,---,0.00,VWS V14.01,2013-05-07 16:08:00,
2013-05-07 11:13:00,72.8,53.6,30.07,ESE,102,3.0,5.0,51,0.00,,---,0.00,VWS V14.01,2013-05-07 16:13:00,
2013-05-07 11:18:00,73.0,50.4,30.07,SSW,212,1.0,5.0,45,0.00,,---,0.00,VWS V14.01,2013-05-07 16:18:00,
2013-05-07 11:23:00,73.0,52.7,30.07,NE,35,2.0,5.0,49,0.00,,---,0.00,VWS V14.01,2013-05-07 16:23:00,
2013-05-07 11:28:00,73.8,53.5,30.07,ENE,76,1.0,5.0,49,0.00,,---,0.00,VWS V14.01,2013-05-07 16:28:00,
2013-05-07 11:30:00,74.0,53.7,30.07,ENE,67,1.0,5.0,49,0.00,,---,0.00,VWS V14.01,2013-05-07 16:30:00,
2013-05-07 11:33:00,74.4,51.1,30.07,East,89,2.0,4.0,44,0.00,,---,0.00,VWS V14.01,2013-05-07 16:33:00,
2013-05-07 11:38:00,74.1,51.4,30.07,ENE,61,3.0,5.0,45,0.00,,---,0.00,VWS V14.01,2013-05-07 16:38:00,
2013-05-07 11:43:00,74.1,50.2,30.07,NE,47,2.0,6.0,43,0.00,,---,0.00,VWS V14.01,2013-05-07 16:43:00,
2013-05-07 11:49:00,74.3,50.4,30.07,NE,43,3.0,7.0,43,0.00,,---,0.00,VWS V14.01,2013-05-07 16:49:00,
2013-05-07 11:54:00,73.6,50.4,30.07,ENE,77,2.0,7.0,44,0.00,,---,0.00,VWS V14.01,2013-05-07 16:54:00,
2013-05-07 11:59:00,73.0,48.6,30.07,ESE,103,4.0,7.0,42,0.00,,---,0.00,VWS V14.01,2013-05-07 16:59:00,
2013-05-07 12:00:00,72.9,49.1,30.07,ESE,106,3.0,7.0,43,0.00,,---,0.00,VWS V14.01,2013-05-07 17:00:00,
2013-05-07 12:04:00,73.5,49.7,30.07,ENE,72,2.0,4.0,43,0.00,,---,0.00,VWS V14.01,2013-05-07 17:04:00,
2013-05-07 12:09:00,74.2,50.3,30.07,ENE,72,4.0,5.0,43,0.00,,---,0.00,VWS V14.01,2013-05-07 17:09:00,
2013-05-07 12:14:00,73.8,49.9,30.07,WNW,282,1.0,8.0,43,0.00,,---,0.00,VWS V14.01,2013-05-07 17:14:00,
2013-05-07 12:19:00,74.4,49.2,30.06,West,263,3.0,8.0,41,0.00,,---,0.00,VWS V14.01,2013-05-07 17:19:00,
2013-05-07 12:24:00,74.8,49.5,30.06,WSW,252,0.0,8.0,41,0.00,,---,0.00,VWS V14.01,2013-05-07 17:24:00,
2013-05-07 12:29:00,75.4,49.4,30.06,South,173,1.0,3.0,40,0.00,,---,0.00,VWS V14.01,2013-05-07 17:29:00,
2013-05-07 12:30:00,75.4,49.4,30.06,South,174,3.0,8.0,40,0.00,,---,0.00,VWS V14.01,2013-05-07 17:30:00,
2013-05-07 12:34:00,75.4,48.8,30.06,SW,226,2.0,4.0,39,0.00,,---,0.00,VWS V14.01,2013-05-07 17:34:00,
2013-05-07 12:39:00,74.0,48.8,30.06,ESE,105,5.0,5.0,41,0.00,,---,0.00,VWS V14.01,2013-05-07 17:39:00,
2013-05-07 12:45:00,73.0,48.6,30.06,East,89,2.0,5.0,42,0.00,,---,0.00,VWS V14.01,2013-05-07 17:45:00,
2013-05-07 12:50:00,72.8,49.0,30.05,SE,138,0.0,5.0,43,0.00,,---,0.00,VWS V14.01,2013-05-07 17:50:00,
2013-05-07 12:55:00,74.0,50.7,30.05,SW,232,2.0,5.0,44,0.00,,---,0.00,VWS V14.01,2013-05-07 17:55:00,
2013-05-07 13:00:00,74.6,48.7,30.05,SW,228,3.0,4.0,40,0.00,,---,0.00,VWS V14.01,2013-05-07 18:00:00,
2013-05-07 13:05:00,74.2,48.3,30.05,SSE,167,1.0,4.0,40,0.00,,---,0.00,VWS V14.01,2013-05-07 18:05:00,
2013-05-07 13:10:00,73.9,47.4,30.05,South,172,1.0,4.0,39,0.00,,---,0.00,VWS V14.01,2013-05-07 18:10:00,
2013-05-07 13:15:00,74.4,47.9,30.05,West,276,0.0,4.0,39,0.00,,---,0.00,VWS V14.01,2013-05-07 18:15:00,
2013-05-07 13:20:00,74.8,48.2,30.05,SSW,207,3.0,4.0,39,0.00,,---,0.00,VWS V14.01,2013-05-07 18:20:00,
2013-05-07 13:25:00,75.3,48.0,30.05,East,82,4.0,7.0,38,0.00,,---,0.00,VWS V14.01,2013-05-07 18:25:00,
2013-05-07 13:30:00,75.5,48.8,30.05,SW,219,3.0,5.0,39,0.00,,---,0.00,VWS V14.01,2013-05-07 18:30:00,
2013-05-07 13:35:00,75.4,49.4,30.05,NE,53,1.0,6.0,40,0.00,,---,0.00,VWS V14.01,2013-05-07 18:35:00,
2013-05-07 13:41:00,75.4,48.8,30.04,ESE,113,2.0,6.0,39,0.00,,---,0.00,VWS V14.01,2013-05-07 18:41:00,
2013-05-07 13:46:00,75.9,47.8,30.04,NE,51,4.0,6.0,37,0.00,,---,0.00,VWS V14.01,2013-05-07 18:46:00,
2013-05-07 13:51:00,75.7,49.0,30.04,SW,218,2.0,6.0,39,0.00,,---,0.00,VWS V14.01,2013-05-07 18:51:00,
2013-05-07 13:56:00,76.1,48.0,30.04,West,277,1.0,6.0,37,0.00,,---,0.00,VWS V14.01,2013-05-07 18:56:00,
2013-05-07 14:00:00,76.8,48.6,30.04,NNE,15,0.0,6.0,37,0.00,,---,0.00,VWS V14.01,2013-05-07 19:00:00,
2013-05-07 14:01:00,77.4,49.8,30.04,WSW,256,1.0,2.0,38,0.00,,---,0.00,VWS V14.01,2013-05-07 19:01:00,
2013-05-07 14:06:00,78.2,46.8,30.03,ESE,109,7.0,7.0,33,0.00,,---,0.00,VWS V14.01,2013-05-07 19:06:00,
2013-05-07 14:11:00,77.3,46.0,30.03,ESE,122,1.0,7.0,33,0.00,,---,0.00,VWS V14.01,2013-05-07 19:11:00,
2013-05-07 14:16:00,76.9,46.4,30.03,South,170,0.0,15.0,34,0.00,,---,0.00,VWS V14.01,2013-05-07 19:16:00,
2013-05-07 14:21:00,77.8,48.7,30.03,SW,228,3.0,15.0,36,0.00,,---,0.00,VWS V14.01,2013-05-07 19:21:00,
2013-05-07 14:26:00,77.0,47.3,30.03,SW,236,0.0,15.0,35,0.00,,---,0.00,VWS V14.01,2013-05-07 19:26:00,
2013-05-07 14:30:00,76.5,47.6,30.03,SSW,210,2.0,15.0,36,0.00,,---,0.00,VWS V14.01,2013-05-07 19:30:00,
2013-05-07 14:32:00,76.2,48.0,30.03,SE,143,1.0,5.0,37,0.00,,---,0.00,VWS V14.01,2013-05-07 19:32:00,
2013-05-07 14:37:00,75.8,47.0,30.03,ESE,117,1.0,5.0,36,0.00,,---,0.00,VWS V14.01,2013-05-07 19:37:00,
2013-05-07 14:42:00,75.5,46.7,30.03,East,87,1.0,5.0,36,0.00,,---,0.00,VWS V14.01,2013-05-07 19:42:00,
2013-05-07 14:47:00,75.6,48.2,30.02,SSW,206,1.0,6.0,38,0.00,,---,0.00,VWS V14.01,2013-05-07 19:47:00,
2013-05-07 14:52:00,76.4,46.8,30.02,SSW,197,0.0,6.0,35,0.00,,---,0.00,VWS V14.01,2013-05-07 19:52:00,
2013-05-07 14:57:00,76.7,47.0,30.02,SE,142,2.0,7.0,35,0.00,,---,0.00,VWS V14.01,2013-05-07 19:57:00,
2013-05-07 15:00:00,76.7,47.0,30.02,SW,236,1.0,7.0,35,0.00,,---,0.00,VWS V14.01,2013-05-07 20:00:00,
2013-05-07 15:02:00,77.1,45.8,30.02,ESE,103,4.0,7.0,33,0.00,,---,0.00,VWS V14.01,2013-05-07 20:02:00,
2013-05-07 15:07:00,77.2,46.7,30.02,SE,137,4.0,7.0,34,0.00,,---,0.00,VWS V14.01,2013-05-07 20:07:00,
2013-05-07 15:12:00,76.7,47.0,30.02,SW,235,2.0,7.0,35,0.00,,---,0.00,VWS V14.01,2013-05-07 20:12:00,
2013-05-07 15:17:00,76.5,47.6,30.01,SW,228,2.0,7.0,36,0.00,,---,0.00,VWS V14.01,2013-05-07 20:17:00,
2013-05-07 15:22:00,75.9,47.1,30.01,East,95,2.0,7.0,36,0.00,,---,0.00,VWS V14.01,2013-05-07 20:22:00,
2013-05-07 15:27:00,75.4,47.3,30.01,ESE,104,1.0,7.0,37,0.00,,---,0.00,VWS V14.01,2013-05-07 20:27:00,
2013-05-07 15:30:00,75.5,48.1,30.01,NE,56,3.0,7.0,38,0.00,,---,0.00,VWS V14.01,2013-05-07 20:30:00,
2013-05-07 15:33:00,75.4,45.9,30.01,East,86,2.0,7.0,35,0.00,,---,0.00,VWS V14.01,2013-05-07 20:33:00,
2013-05-07 15:38:00,75.3,46.5,30.01,North,6,1.0,7.0,36,0.00,,---,0.00,VWS V14.01,2013-05-07 20:38:00,
2013-05-07 15:43:00,75.6,46.8,30.01,ENE,58,1.0,7.0,36,0.00,,---,0.00,VWS V14.01,2013-05-07 20:43:00,
2013-05-07 15:48:00,75.7,46.9,30.01,ENE,75,1.0,7.0,36,0.00,,---,0.00,VWS V14.01,2013-05-07 20:48:00,
2013-05-07 15:53:00,76.5,49.0,30.01,East,86,5.0,7.0,38,0.00,,---,0.00,VWS V14.01,2013-05-07 20:53:00,
2013-05-07 15:58:00,76.8,47.8,30.00,SSE,153,2.0,8.0,36,0.00,,---,0.00,VWS V14.01,2013-05-07 20:58:00,
2013-05-07 16:00:00,77.1,47.4,30.00,SSE,158,1.0,8.0,35,0.00,,---,0.00,VWS V14.01,2013-05-07 21:00:00,
2013-05-07 16:03:00,77.0,47.3,30.00,ESE,103,6.0,7.0,35,0.00,,---,0.00,VWS V14.01,2013-05-07 21:03:00,
2013-05-07 16:08:00,76.6,46.9,30.00,SE,141,3.0,8.0,35,0.00,,---,0.00,VWS V14.01,2013-05-07 21:08:00,
2013-05-07 16:13:00,76.4,46.0,30.00,East,101,1.0,8.0,34,0.00,,---,0.00,VWS V14.01,2013-05-07 21:13:00,
2013-05-07 16:18:00,77.1,47.4,30.00,ESE,115,3.0,8.0,35,0.00,,---,0.00,VWS V14.01,2013-05-07 21:18:00,
2013-05-07 16:23:00,77.5,49.9,30.00,SW,219,3.0,8.0,38,0.00,,---,0.00,VWS V14.01,2013-05-07 21:23:00,
2013-05-07 16:29:00,77.5,47.0,30.00,SW,221,3.0,8.0,34,0.00,,---,0.00,VWS V14.01,2013-05-07 21:29:00,
2013-05-07 16:30:00,77.5,46.2,30.00,SW,218,4.0,8.0,33,0.00,,---,0.00,VWS V14.01,2013-05-07 21:30:00,
2013-05-07 16:34:00,77.2,46.7,30.00,ESE,122,2.0,5.0,34,0.00,,---,0.00,VWS V14.01,2013-05-07 21:34:00,
2013-05-07 16:39:00,77.5,47.0,29.99,SE,134,0.0,5.0,34,0.00,,---,0.00,VWS V14.01,2013-05-07 21:39:00,
2013-05-07 16:44:00,77.5,47.0,29.99,West,260,5.0,5.0,34,0.00,,---,0.00,VWS V14.01,2013-05-07 21:44:00,
2013-05-07 16:49:00,77.1,46.6,29.99,West,264,3.0,6.0,34,0.00,,---,0.00,VWS V14.01,2013-05-07 21:49:00,
2013-05-07 16:54:00,77.0,45.7,29.99,WNW,282,4.0,6.0,33,0.00,,---,0.00,VWS V14.01,2013-05-07 21:54:00,
2013-05-07 17:00:00,77.0,46.5,29.99,West,270,2.0,6.0,34,0.00,,---,0.00,VWS V14.01,2013-05-07 22:00:00,
2013-05-07 17:30:00,76.5,45.3,29.99,SW,225,2.0,4.0,33,0.00,,---,0.00,VWS V14.01,2013-05-07 22:30:00,
2013-05-07 18:27:00,76.2,47.3,29.98,SW,215,1.0,2.0,36,0.00,,---,0.00,VWS V14.01,2013-05-07 23:27:00,
2013-05-07 18:30:00,76.3,45.9,29.98,SW,226,0.0,2.0,34,0.00,,---,0.00,VWS V14.01,2013-05-07 23:30:00,
2013-05-07 18:32:00,76.5,45.3,29.98,SE,139,1.0,2.0,33,0.00,,---,0.00,VWS V14.01,2013-05-07 23:32:00,
2013-05-07 18:37:00,76.3,45.1,29.98,SSW,207,3.0,4.0,33,0.00,,---,0.00,VWS V14.01,2013-05-07 23:37:00,
2013-05-07 18:43:00,76.3,46.7,29.98,SE,131,1.0,4.0,35,0.00,,---,0.00,VWS V14.01,2013-05-07 23:43:00,
2013-05-07 18:48:00,76.0,45.6,29.98,East,91,1.0,5.0,34,0.00,,---,0.00,VWS V14.01,2013-05-07 23:48:00,
2013-05-07 18:53:00,75.6,46.0,29.98,South,170,1.0,5.0,35,0.00,,---,0.00,VWS V14.01,2013-05-07 23:53:00,
2013-05-07 18:58:00,76.1,47.2,29.98,ESE,117,0.0,5.0,36,0.00,,---,0.00,VWS V14.01,2013-05-07 23:58:00,
2013-05-07 19:00:00,76.2,48.0,29.98,ESE,117,0.0,5.0,37,0.00,,---,0.00,VWS V14.01,2013-05-08 00:00:00,
2013-05-07 19:03:00,76.3,47.4,29.98,South,191,0.0,2.0,36,0.00,,---,0.00,VWS V14.01,2013-05-08 00:03:00,
2013-05-07 19:08:00,76.4,47.5,29.98,SW,225,2.0,4.0,36,0.00,,---,0.00,VWS V14.01,2013-05-08 00:08:00,
2013-05-07 19:13:00,76.0,47.9,29.98,SSW,194,1.0,4.0,37,0.00,,---,0.00,VWS V14.01,2013-05-08 00:13:00,
2013-05-07 19:18:00,75.6,48.2,29.98,South,188,2.0,4.0,38,0.00,,---,0.00,VWS V14.01,2013-05-08 00:18:00,
2013-05-07 19:23:00,75.0,47.7,29.98,SSE,164,2.0,4.0,38,0.00,,---,0.00,VWS V14.01,2013-05-08 00:23:00,
2013-05-07 19:28:00,74.4,48.5,29.98,SSE,148,0.0,4.0,40,0.00,,---,0.00,VWS V14.01,2013-05-08 00:28:00,
2013-05-07 19:30:00,74.3,48.4,29.98,SSE,148,0.0,4.0,40,0.00,,---,0.00,VWS V14.01,2013-05-08 00:30:00,
2013-05-07 19:33:00,73.9,47.4,29.98,ESE,103,3.0,3.0,39,0.00,,---,0.00,VWS V14.01,2013-05-08 00:33:00,
2013-05-07 19:38:00,73.5,47.7,29.98,SSE,148,0.0,3.0,40,0.00,,---,0.00,VWS V14.01,2013-05-08 00:38:00,
2013-05-07 19:44:00,73.1,48.0,29.98,SSE,159,0.0,3.0,41,0.00,,---,0.00,VWS V14.01,2013-05-08 00:44:00,
2013-05-07 19:49:00,72.8,47.8,29.98,SE,139,0.0,3.0,41,0.00,,---,0.00,VWS V14.01,2013-05-08 00:49:00,
2013-05-07 19:54:00,72.3,48.6,29.98,SE,139,0.0,3.0,43,0.00,,---,0.00,VWS V14.01,2013-05-08 00:54:00,
2013-05-07 19:59:00,71.8,48.1,29.98,SE,138,0.0,3.0,43,0.00,,---,0.00,VWS V14.01,2013-05-08 00:59:00,
2013-05-07 20:00:00,71.8,48.1,29.98,SE,138,0.0,3.0,43,0.00,,---,0.00,VWS V14.01,2013-05-08 01:00:00,
2013-05-07 20:04:00,71.1,48.1,29.98,SE,139,0.0,0.0,44,0.00,,---,0.00,VWS V14.01,2013-05-08 01:04:00,
2013-05-07 20:09:00,70.6,48.2,29.98,SE,138,0.0,1.0,45,0.00,,---,0.00,VWS V14.01,2013-05-08 01:09:00,
2013-05-07 20:14:00,70.2,48.5,29.98,SE,139,0.0,1.0,46,0.00,,---,0.00,VWS V14.01,2013-05-08 01:14:00,
2013-05-07 20:19:00,70.0,48.3,29.98,SE,138,0.0,1.0,46,0.00,,---,0.00,VWS V14.01,2013-05-08 01:19:00,
2013-05-07 20:24:00,69.8,48.1,29.98,SE,138,0.0,1.0,46,0.00,,---,0.00,VWS V14.01,2013-05-08 01:24:00,
2013-05-07 20:29:00,69.4,47.7,29.98,SE,139,0.0,0.0,46,0.00,,---,0.00,VWS V14.01,2013-05-08 01:29:00,
2013-05-07 20:30:00,69.4,47.7,29.98,SE,138,0.0,1.0,46,0.00,,---,0.00,VWS V14.01,2013-05-08 01:30:00,
2013-05-07 20:35:00,68.8,48.3,29.99,SE,139,0.0,1.0,48,0.00,,---,0.00,VWS V14.01,2013-05-08 01:35:00,
2013-05-07 20:40:00,68.6,48.2,29.99,SE,129,0.0,1.0,48,0.00,,---,0.00,VWS V14.01,2013-05-08 01:40:00,
2013-05-07 20:45:00,69.0,48.0,29.99,SE,145,0.0,1.0,47,0.00,,---,0.00,VWS V14.01,2013-05-08 01:45:00,
2013-05-07 20:50:00,68.8,47.8,29.99,SE,145,0.0,1.0,47,0.00,,---,0.00,VWS V14.01,2013-05-08 01:50:00,
2013-05-07 20:55:00,68.7,47.7,29.98,SE,135,0.0,1.0,47,0.00,,---,0.00,VWS V14.01,2013-05-08 01:55:00,
2013-05-07 21:00:00,68.6,48.2,29.98,SW,232,1.0,1.0,48,0.00,,---,0.00,VWS V14.01,2013-05-08 02:00:00,
2013-05-07 21:05:00,68.5,48.1,29.99,SSW,198,0.0,1.0,48,0.00,,---,0.00,VWS V14.01,2013-05-08 02:05:00,
2013-05-07 21:10:00,68.2,47.8,29.99,SSW,198,0.0,1.0,48,0.00,,---,0.00,VWS V14.01,2013-05-08 02:10:00,
2013-05-07 21:15:00,67.8,48.5,29.99,SSW,198,0.0,1.0,50,0.00,,---,0.00,VWS V14.01,2013-05-08 02:15:00,
2013-05-07 21:20:00,67.7,48.4,29.99,SSW,199,0.0,1.0,50,0.00,,---,0.00,VWS V14.01,2013-05-08 02:20:00,
2013-05-07 21:25:00,67.4,48.7,29.99,SSW,198,0.0,1.0,51,0.00,,---,0.00,VWS V14.01,2013-05-08 02:25:00,
2013-05-07 21:30:00,66.9,48.2,29.99,SSW,199,0.0,1.0,51,0.00,,---,0.00,VWS V14.01,2013-05-08 02:30:00,
2013-05-07 21:31:00,66.7,48.0,29.99,SSW,198,0.0,0.0,51,0.00,,---,0.00,VWS V14.01,2013-05-08 02:31:00,
2013-05-07 21:36:00,66.2,48.1,29.99,SSW,198,0.0,0.0,52,0.00,,---,0.00,VWS V14.01,2013-05-08 02:36:00,
2013-05-07 21:41:00,66.0,48.4,29.99,SSW,198,0.0,0.0,53,0.00,,---,0.00,VWS V14.01,2013-05-08 02:41:00,
2013-05-07 21:46:00,65.8,48.7,29.99,SE,131,0.0,0.0,54,0.00,,---,0.00,VWS V14.01,2013-05-08 02:46:00,
2013-05-07 21:51:00,65.9,48.8,29.99,SE,131,0.0,1.0,54,0.00,,---,0.00,VWS V14.01,2013-05-08 02:51:00,
2013-05-07 21:56:00,65.9,49.3,29.99,SE,129,0.0,1.0,55,0.00,,---,0.00,VWS V14.01,2013-05-08 02:56:00,
2013-05-07 22:00:00,65.8,48.2,29.99,SE,131,0.0,1.0,53,0.00,,---,0.00,VWS V14.01,2013-05-08 03:00:00,
2013-05-07 22:01:00,65.8,48.2,29.99,SE,131,0.0,1.0,53,0.00,,---,0.00,VWS V14.01,2013-05-08 03:01:00,
2013-05-07 22:06:00,65.6,48.5,29.99,SE,131,0.0,1.0,54,0.00,,---,0.00,VWS V14.01,2013-05-08 03:06:00,
2013-05-07 22:11:00,65.0,48.5,29.99,SE,131,0.0,1.0,55,0.00,,---,0.00,VWS V14.01,2013-05-08 03:11:00,
2013-05-07 22:16:00,64.3,48.3,29.99,SE,131,0.0,1.0,56,0.00,,---,0.00,VWS V14.01,2013-05-08 03:16:00,
2013-05-07 22:22:00,64.2,48.7,29.99,SE,131,0.0,1.0,57,0.00,,---,0.00,VWS V14.01,2013-05-08 03:22:00,
2013-05-07 22:27:00,64.2,48.7,29.99,SE,131,0.0,1.0,57,0.00,,---,0.00,VWS V14.01,2013-05-08 03:27:00,
2013-05-07 22:30:00,64.2,48.7,29.99,SE,131,0.0,1.0,57,0.00,,---,0.00,VWS V14.01,2013-05-08 03:30:00,
2013-05-07 22:32:00,64.1,49.0,29.99,SE,131,0.0,0.0,58,0.00,,---,0.00,VWS V14.01,2013-05-08 03:32:00,
2013-05-07 22:37:00,63.8,49.2,29.99,SE,131,0.0,0.0,59,0.00,,---,0.00,VWS V14.01,2013-05-08 03:37:00,
2013-05-07 22:42:00,63.7,48.7,29.99,SE,131,0.0,0.0,58,0.00,,---,0.00,VWS V14.01,2013-05-08 03:42:00,
2013-05-07 22:47:00,63.5,49.4,29.99,SE,131,0.0,0.0,60,0.00,,---,0.00,VWS V14.01,2013-05-08 03:47:00,
2013-05-07 22:52:00,63.0,48.9,29.99,SE,131,0.0,0.0,60,0.00,,---,0.00,VWS V14.01,2013-05-08 03:52:00,
2013-05-07 22:57:00,62.7,49.1,29.99,SE,131,0.0,0.0,61,0.00,,---,0.00,VWS V14.01,2013-05-08 03:57:00,
2013-05-07 23:00:00,62.6,48.5,29.99,SE,131,0.0,0.0,60,0.00,,---,0.00,VWS V14.01,2013-05-08 04:00:00,
2013-05-07 23:01:00,62.5,48.9,29.99,SE,131,0.0,0.0,61,0.00,,---,0.00,VWS V14.01,2013-05-08 04:01:00,
2013-05-07 23:03:00,62.5,48.9,29.98,SE,131,0.0,0.0,61,0.00,,---,0.00,VWS V14.01,2013-05-08 04:03:00,
2013-05-07 23:08:00,62.4,48.8,29.98,SE,131,0.0,0.0,61,0.00,,---,0.00,VWS V14.01,2013-05-08 04:08:00,
2013-05-07 23:13:00,62.4,49.2,29.98,SE,131,0.0,0.0,62,0.00,,---,0.00,VWS V14.01,2013-05-08 04:13:00,
2013-05-07 23:18:00,62.4,48.8,29.99,SE,131,0.0,0.0,61,0.00,,---,0.00,VWS V14.01,2013-05-08 04:18:00,
2013-05-07 23:23:00,61.8,48.7,29.99,SE,131,0.0,0.0,62,0.00,,---,0.00,VWS V14.01,2013-05-08 04:23:00,
2013-05-07 23:28:00,61.2,48.5,29.99,SE,131,0.0,0.0,63,0.00,,---,0.00,VWS V14.01,2013-05-08 04:28:00,
2013-05-07 23:30:00,61.1,48.4,29.99,SE,131,0.0,0.0,63,0.00,,---,0.00,VWS V14.01,2013-05-08 04:30:00,
2013-05-07 23:33:00,60.9,48.7,29.98,SE,131,0.0,0.0,64,0.00,,---,0.00,VWS V14.01,2013-05-08 04:33:00,
2013-05-07 23:39:00,60.6,48.4,29.99,SE,130,0.0,0.0,64,0.00,,---,0.00,VWS V14.01,2013-05-08 04:39:00,
2013-05-07 23:44:00,60.4,48.6,29.99,SE,130,0.0,0.0,65,0.00,,---,0.00,VWS V14.01,2013-05-08 04:44:00,
2013-05-07 23:49:00,61.0,49.2,29.99,SE,131,0.0,0.0,65,0.00,,---,0.00,VWS V14.01,2013-05-08 04:49:00,
2013-05-07 23:54:00,61.2,48.9,29.99,SE,129,0.0,0.0,64,0.00,,---,0.00,VWS V14.01,2013-05-08 04:54:00,
2013-05-07 23:59:00,61.2,49.3,29.99,SE,131,0.0,0.0,65,0.00,,---,0.00,VWS V14.01,2013-05-08 04:59:00,